Date String (YYYY-MM-DD hh:mm:ss) UTC,Instrument flags,Ambient pressure (hPa),Sample flow (lpm),Bypass flow (lpm),Sample temperature (°C),Ambient temperature (°C),ASC tube jacket temperature (°C),LED temperature (°C),Box temperature (°C),Sample RH (%),Span deviation,Mass concentration (μg/m³),Mass concentration (μg/m³),Mass concentration (μg/m³)
DateTimeUTC,F1_M11,P_M11,Q1_M11,Q2_M11,T1_M11,T2_M11,T3_M11,T4_M11,T5_M11,U1_M11,ZSPAN_M11,X0_M11,X2_M11,X1_M11
2021-10-06 11:00:00,,0827.8,5.01,0.00,29.7,28.8,00.0,39.0,31.5,13.8,0001.1,0013.57,0005.10,0003.98
2021-10-06 11:01:00,,0827.7,5.01,0.00,29.7,28.8,00.0,38.9,31.5,13.7,0001.3,0013.76,0005.15,0003.98
2021-10-06 11:02:00,,0827.7,5.02,0.00,29.7,28.8,00.0,38.9,31.4,13.7,0001.2,0013.52,0005.13,0003.98
2021-10-06 11:03:00,,0827.7,5.00,0.00,29.7,28.8,00.0,38.9,31.4,13.7,0000.9,0012.24,0005.03,0003.97
2021-10-06 11:04:00,,0827.7,5.00,0.00,29.7,28.8,00.0,38.9,31.4,13.6,0001.1,0012.76,0005.00,0003.98
2021-10-06 11:05:00,,0827.7,5.00,0.00,29.7,28.8,00.0,38.9,31.4,13.7,0000.6,0012.84,0004.98,0003.98
2021-10-06 11:06:00,,0827.7,4.99,0.00,29.7,28.8,00.0,38.9,31.4,13.7,0000.8,0012.73,0004.98,0003.99
2021-10-06 11:07:00,,0827.7,5.01,0.00,29.7,28.8,00.0,38.9,31.4,13.7,0000.7,0012.38,0004.97,0004.01
2021-10-06 11:08:00,,0827.7,5.00,0.00,29.7,28.8,00.0,38.9,31.4,13.8,0000.7,0011.73,0004.92,0004.00
2021-10-06 11:09:00,,0827.7,5.00,0.00,29.7,28.8,00.0,38.9,31.4,13.8,0000.7,0012.39,0004.89,0004.01
2021-10-06 11:10:00,,0827.7,5.01,0.00,29.7,28.8,00.0,38.9,31.4,13.8,0000.0,0013.06,0004.90,0004.01
2021-10-06 11:11:00,,0827.7,4.98,0.00,29.7,28.8,00.0,38.9,31.4,13.9,0000.0,0012.53,0004.87,0004.01
2021-10-06 11:12:00,,0827.7,5.01,0.00,29.7,28.8,00.0,38.9,31.4,14.0,0000.0,0012.47,0004.80,0004.00
2021-10-06 11:13:00,,0827.7,4.99,0.00,29.7,28.8,00.0,38.8,31.4,14.0,0000.0,0012.29,0004.76,0004.00
2021-10-06 11:14:00,,0827.7,5.01,0.00,29.7,28.8,00.0,38.8,31.4,14.0,0000.0,0012.61,0004.82,0004.00
2021-10-06 11:15:00,,0827.7,5.01,0.00,29.7,28.8,00.0,38.8,31.4,13.9,0000.0,0012.18,0004.85,0004.00
2021-10-06 11:16:00,,0827.7,4.99,0.00,29.6,28.8,00.0,38.8,31.4,13.9,0000.0,0011.68,0004.83,0003.99
2021-10-06 11:17:00,,0827.7,5.00,0.00,29.6,28.7,00.0,38.8,31.4,14.0,0000.0,0012.17,0004.80,0003.99
2021-10-06 11:18:00,,0827.7,5.01,0.00,29.6,28.7,00.0,38.8,31.4,14.1,0000.0,0012.48,0004.76,0003.98
2021-10-06 11:19:00,,0827.7,5.00,0.00,29.6,28.7,00.0,38.8,31.3,14.1,0000.0,0012.34,0004.77,0004.00
2021-10-06 11:20:00,,0827.7,5.00,0.00,29.6,28.7,00.0,38.8,31.3,14.2,0001.4,0012.53,0004.82,0004.01
2021-10-06 11:21:00,,0827.7,5.00,0.00,29.6,28.7,00.0,38.8,31.3,14.3,0000.8,0012.54,0004.85,0004.01
2021-10-06 11:22:00,,0827.7,5.00,0.00,29.6,28.7,00.0,38.8,31.3,14.2,0001.8,0012.97,0004.86,0004.02
2021-10-06 11:23:00,,0827.7,4.99,0.00,29.6,28.7,00.0,38.8,31.3,14.3,0001.0,0012.79,0004.84,0004.02
2021-10-06 11:24:00,,0827.7,4.99,0.00,29.6,28.8,00.0,38.8,31.3,14.3,0000.1,0013.00,0004.88,0004.03
2021-10-06 11:25:00,,0827.7,5.00,0.00,29.6,28.8,00.0,38.8,31.3,14.2,0000.7,0012.72,0004.93,0004.04
2021-10-06 11:26:00,,0827.7,5.00,0.00,29.6,28.8,00.0,38.8,31.3,14.2,0000.4,0012.68,0004.91,0004.05
2021-10-06 11:27:00,,0827.7,5.01,0.00,29.6,28.8,00.0,38.8,31.4,14.2,0000.4,0012.70,0004.93,0004.06
2021-10-06 11:28:00,,0827.7,5.00,0.00,29.7,28.8,00.0,38.8,31.4,14.2,0000.0,0012.27,0004.95,0004.06
2021-10-06 11:29:00,,0827.7,5.01,0.00,29.7,28.9,00.0,38.8,31.4,14.1,0000.0,0012.12,0005.01,0004.07
2021-10-06 11:30:00,,0827.7,5.00,0.00,29.7,28.9,00.0,38.8,31.4,14.1,0000.0,0012.14,0005.02,0004.07
2021-10-06 11:31:00,,0827.7,4.99,0.00,29.7,28.9,00.0,38.8,31.4,14.1,0000.0,0011.13,0004.99,0004.05
2021-10-06 11:32:00,,0827.7,4.99,0.00,29.7,28.9,00.0,38.8,31.5,14.0,0000.0,0010.88,0004.96,0004.05
2021-10-06 11:33:00,,0827.7,5.00,0.00,29.7,28.9,00.0,38.8,31.5,14.0,0000.0,0010.56,0004.94,0004.05
2021-10-06 11:34:00,,0827.7,4.99,0.00,29.7,28.9,00.0,38.8,31.4,14.0,0000.0,0011.00,0004.94,0004.05
2021-10-06 11:35:00,,0827.7,5.00,0.00,29.8,28.9,00.0,38.8,31.5,14.0,0000.0,0011.21,0004.91,0004.05
2021-10-06 11:36:00,,0827.7,5.00,0.00,29.8,28.9,00.0,38.8,31.5,14.0,0000.0,0011.13,0004.83,0004.05
2021-10-06 11:37:00,,0827.7,5.00,0.00,29.8,28.9,00.0,38.8,31.5,14.0,0000.0,0012.02,0004.85,0004.04
2021-10-06 11:38:00,,0827.7,5.00,0.00,29.8,28.9,00.0,38.8,31.5,13.9,0000.0,0012.16,0004.87,0004.05
2021-10-06 11:39:00,,0827.7,4.99,0.00,29.8,28.9,00.0,38.8,31.5,13.9,0000.0,0012.32,0004.93,0004.06
2021-10-06 11:40:00,,0827.7,5.00,0.00,29.7,28.9,00.0,38.8,31.5,13.9,0000.0,0012.88,0004.97,0004.05
2021-10-06 11:41:00,,0827.6,5.01,0.00,29.7,28.9,00.0,38.8,31.5,13.9,0000.0,0013.98,0005.01,0004.05
2021-10-06 11:42:00,,0827.6,5.00,0.00,29.7,28.9,00.0,38.8,31.5,14.0,0000.0,0015.35,0005.02,0004.05
2021-10-06 11:43:00,,0827.6,4.99,0.00,29.7,28.8,00.0,38.8,31.4,14.0,0000.0,0016.23,0005.04,0004.06
2021-10-06 11:44:00,,0827.6,5.00,0.00,29.7,28.8,00.0,38.8,31.4,14.0,0000.0,0016.11,0005.10,0004.06
2021-10-06 11:45:00,,0827.5,4.98,0.00,29.7,28.8,00.0,38.8,31.4,14.0,0000.0,0016.72,0005.16,0004.05
2021-10-06 11:46:00,,0827.6,5.00,0.00,29.7,28.7,00.0,38.8,31.4,14.0,0000.0,0017.00,0005.22,0004.05
2021-10-06 11:47:00,,0827.6,5.00,0.00,29.7,28.7,00.0,38.8,31.4,14.0,0000.0,0017.12,0005.24,0004.04
2021-10-06 11:48:00,,0827.6,5.00,0.00,29.6,28.7,00.0,38.8,31.3,14.0,0000.1,0017.33,0005.28,0004.04
2021-10-06 11:49:00,,0827.6,5.00,0.00,29.6,28.7,00.0,38.8,31.4,14.0,0000.0,0017.82,0005.28,0004.03
2021-10-06 11:50:00,,0827.6,4.99,0.00,29.6,28.8,00.0,38.8,31.4,14.0,0000.0,0017.76,0005.22,0004.02
2021-10-06 11:51:00,,0827.6,4.99,0.00,29.7,28.8,00.0,38.8,31.4,14.0,0000.0,0017.14,0005.18,0004.02
2021-10-06 11:52:00,,0827.6,5.00,0.00,29.7,28.8,00.0,38.8,31.4,14.0,0000.0,0016.23,0005.11,0004.02
2021-10-06 11:53:00,,0827.6,5.01,0.00,29.6,28.8,00.0,38.8,31.4,14.0,0000.0,0015.08,0005.10,0004.02
2021-10-06 11:54:00,,0827.7,5.00,0.00,29.6,28.8,00.0,38.8,31.4,14.0,0000.0,0014.06,0005.10,0004.02
2021-10-06 11:55:00,,0827.7,4.99,0.00,29.7,28.8,00.0,38.8,31.4,14.0,0001.5,0013.80,0005.04,0004.02
2021-10-06 11:56:00,,0827.7,5.01,0.00,29.7,28.8,00.0,38.8,31.4,14.0,0002.1,0013.03,0005.01,0004.01
2021-10-06 11:57:00,,0827.6,4.99,0.00,29.7,28.8,00.0,38.8,31.5,13.9,0001.7,0012.13,0004.94,0004.00
2021-10-06 11:58:00,,0827.6,5.01,0.00,29.7,28.8,00.0,38.8,31.5,13.9,0002.6,0011.91,0004.91,0004.01
2021-10-06 11:59:00,,0827.6,4.99,0.00,29.7,28.9,00.0,38.8,31.5,13.9,0002.9,0011.95,0004.88,0004.01
